Back to catalog

DELTA 1 R/B

AlivePO
NORAD 979·ROCKET BODY·🇺🇸 United States

Launched Jan 22, 1965 from Cape Canaveral Space Force Station

Loading…

Next Passes (next 24 hours)

TLE

FreshSource: Space-Track

Epoch: Sep 14, 2026, 10:14 UTC

1 00979U 65004B   26257.42679564  .00000055  00000-0  76684-4 0  9990
2 00979  96.4149  71.1891 1139769  67.6325 304.1431 12.15547731726403

Track DELTA 1 R/B in real time with AllMySat

Download on the App Store